| time (UTC) | temp C | wind direction | speed KPH | gust KPH | rain 1hr cm | rain 24hr cm | rain mn cm | humidity % | barometer mb |
| 20260508133021 | 12 | 265 | 1.6 | 3.2 | 0.00 | 0.00 | 0.00 | 45 | 1014.7 |
| 20260508131518 | 12 | 211 | 0.0 | 4.8 | 0.00 | 0.00 | 0.00 | 47 | 1014.6 |
| 20260508130020 | 12 | 311 | 0.0 | 4.8 | 0.00 | 0.00 | 0.00 | 52 | 1014.9 |
| 20260508124514 | 11 | 240 | 1.6 | 4.8 | 0.00 | 0.00 | 0.00 | 60 | 1014.8 |
| 20260508123013 | 11 | 259 | 0.0 | 3.2 | 0.00 | 0.00 | 0.00 | 63 | 1014.7 |
| 20260508121516 | 10 | 206 | 1.6 | 6.4 | 0.00 | 0.00 | 0.00 | 67 | 1014.7 |
| 20260508120006 | 10 | 273 | 0.0 | 3.2 | 0.00 | 0.00 | 0.00 | 73 | 1014.6 |
| 20260508114533 | 9 | 278 | 0.0 | 3.2 | 0.00 | 0.00 | 0.00 | 76 | 1014.4 |
| 20260508113034 | 8 | 261 | 0.0 | 4.8 | 0.00 | 0.00 | 0.00 | 80 | 1014.4 |
| 20260508111525 | 7 | 276 | 0.0 | 3.2 | 0.00 | 0.00 | 0.00 | 85 | 1014.5 |
| 20260508110019 | 6 | 248 | 0.0 | 3.2 | 0.00 | 0.00 | 0.00 | 88 | 1014.4 |
| 20260508104515 | 6 | 248 | 0.0 | 0.0 | 0.00 | 0.00 | 0.00 | 89 | 1013.9 |
| 20260508103013 | 6 | 248 | 0.0 | 0.0 | 0.00 | 0.00 | 0.00 | 88 | 1013.8 |
| 20260508101510 | 6 | 248 | 0.0 | 0.0 | 0.00 | 0.00 | 0.00 | 87 | 1013.7 |
| 20260508100034 | 6 | 248 | 0.0 | 0.0 | 0.00 | 0.00 | 0.00 | 86 | 1013.5 |
| 20260508094525 | 6 | 248 | 0.0 | 0.0 | 0.00 | 0.00 | 0.00 | 85 | 1013.4 |
| 20260508093025 | 6 | 248 | 0.0 | 0.0 | 0.00 | 0.00 | 0.00 | 83 | 1013.3 |
| 20260508091523 | 6 | 248 | 0.0 | 0.0 | 0.00 | 0.00 | 0.00 | 82 | 1013.3 |
| 20260508090025 | 7 | 248 | 0.0 | 0.0 | 0.00 | 0.03 | 0.00 | 79 | 1013.2 |
| 20260508084519 | 7 | 248 | 0.0 | 0.0 | 0.00 | 0.03 | 0.00 | 77 | 1013.1 |
| 20260508083015 | 8 | 248 | 0.0 | 0.0 | 0.00 | 0.03 | 0.00 | 74 | 1012.9 |
| 20260508081526 | 9 | 248 | 0.0 | 1.6 | 0.00 | 0.03 | 0.00 | 71 | 1012.5 |
| 20260508080028 | 9 | 195 | 0.0 | 6.4 | 0.00 | 0.03 | 0.00 | 71 | 1012.3 |
| 20260508074526 | 10 | 172 | 0.0 | 6.4 | 0.00 | 0.03 | 0.00 | 69 | 1012.0 |
| 20260508073028 | 10 | 316 | 1.6 | 6.4 | 0.00 | 0.03 | 0.00 | 68 | 1011.8 |
| 20260508071526 | 10 | 266 | 0.0 | 6.4 | 0.00 | 0.03 | 0.00 | 67 | 1011.4 |
| 20260508070021 | 10 | 282 | 3.2 | 11.3 | 0.00 | 0.03 | 0.00 | 70 | 1011.4 |
| 20260508064546 | 11 | 270 | 0.0 | 4.8 | 0.00 | 0.03 | 0.00 | 72 | 1011.1 |
| 20260508063029 | 10 | 125 | 1.6 | 8.0 | 0.00 | 0.03 | 0.00 | 74 | 1011.0 |
| 20260508061514 | 11 | 288 | 0.0 | 6.4 | 0.00 | 0.03 | 0.00 | 74 | 1010.6 |
| 20260508060015 | 11 | 282 | 0.0 | 4.8 | 0.00 | 0.05 | 0.00 | 73 | 1010.3 |
| 20260508054508 | 11 | 229 | 0.0 | 6.4 | 0.00 | 0.08 | 0.00 | 72 | 1010.2 |
| 20260508053008 | 12 | 278 | 0.0 | 4.8 | 0.00 | 0.38 | 0.00 | 71 | 1010.1 |
| 20260508051510 | 12 | 286 | 0.0 | 4.8 | 0.00 | 0.46 | 0.00 | 71 | 1010.0 |
| 20260508050008 | 12 | 229 | 1.6 | 4.8 | 0.00 | 0.46 | 0.00 | 70 | 1009.9 |
| 20260508044504 | 12 | 219 | 0.0 | 6.4 | 0.00 | 0.46 | 0.00 | 70 | 1009.8 |
| 20260508043004 | 12 | 194 | 0.0 | 3.2 | 0.00 | 0.46 | 0.00 | 71 | 1009.9 |
| 20260508041519 | 11 | 241 | 0.0 | 4.8 | 0.00 | 0.46 | 0.00 | 72 | 1009.9 |
| 20260508040017 | 11 | 201 | 0.0 | 3.2 | 0.00 | 0.46 | 0.00 | 73 | 1009.8 |
| 20260508034521 | 10 | 238 | 0.0 | 1.6 | 0.00 | 0.46 | 0.46 | 74 | 1009.9 |
| 20260508033012 | 11 | 238 | 0.0 | 0.0 | 0.00 | 0.48 | 0.46 | 71 | 1009.9 |
| 20260508031508 | 11 | 239 | 0.0 | 3.2 | 0.00 | 0.48 | 0.46 | 69 | 1009.8 |
| 20260508030004 | 11 | 228 | 0.0 | 3.2 | 0.00 | 0.48 | 0.46 | 67 | 1009.8 |
| 20260508024505 | 10 | 183 | 0.0 | 6.4 | 0.00 | 0.48 | 0.46 | 71 | 1009.8 |
| 20260508023022 | 10 | 227 | 0.0 | 0.0 | 0.00 | 0.48 | 0.46 | 74 | 1009.5 |
| 20260508021517 | 9 | 227 | 0.0 | 0.0 | 0.00 | 0.48 | 0.46 | 73 | 1009.5 |
| 20260508020015 | 9 | 227 | 0.0 | 0.0 | 0.00 | 0.48 | 0.46 | 72 | 1009.6 |
| 20260508014513 | 10 | 227 | 0.0 | 0.0 | 0.00 | 0.48 | 0.46 | 70 | 1009.3 |
| 20260508013013 | 10 | 227 | 0.0 | 0.0 | 0.00 | 0.48 | 0.46 | 68 | 1009.3 |
| 20260508011509 | 11 | 227 | 0.0 | 0.0 | 0.00 | 0.48 | 0.46 | 64 | 1009.0 |
| 20260508010020 | 11 | 227 | 0.0 | 0.0 | 0.00 | 0.48 | 0.46 | 62 | 1009.0 |
| 20260508004536 | 12 | 227 | 0.0 | 0.0 | 0.00 | 0.48 | 0.46 | 59 | 1009.0 |
| 20260508003025 | 12 | 227 | 0.0 | 0.0 | 0.00 | 0.48 | 0.46 | 55 | 1008.7 |
| 20260508001527 | 13 | 227 | 0.0 | 0.0 | 0.00 | 0.48 | 0.46 | 50 | 1008.8 |
| 20260508000019 | 13 | 227 | 0.0 | 0.0 | 0.00 | 0.48 | 0.46 | 47 | 1008.8 |
| 20260507234524 | 15 | 227 | 0.0 | 3.2 | 0.00 | 0.48 | 0.46 | 43 | 1008.7 |
| 20260507233023 | 15 | 226 | 0.0 | 4.8 | 0.00 | 0.48 | 0.46 | 39 | 1008.6 |
| 20260507231512 | 16 | 265 | 0.0 | 8.0 | 0.00 | 0.48 | 0.46 | 38 | 1008.5 |
| 20260507230008 | 16 | 266 | 0.0 | 11.3 | 0.00 | 0.48 | 0.46 | 36 | 1008.2 |
| 20260507224528 | 16 | 261 | 0.0 | 3.2 | 0.00 | 0.48 | 0.46 | 36 | 1008.1 |
| 20260507223024 | 17 | 297 | 0.0 | 6.4 | 0.00 | 0.48 | 0.46 | 37 | 1008.1 |
| 20260507221522 | 17 | 354 | 0.0 | 4.8 | 0.00 | 0.48 | 0.46 | 35 | 1008.2 |
| 20260507220020 | 17 | 283 | 0.0 | 4.8 | 0.00 | 0.48 | 0.46 | 35 | 1008.2 |
| 20260507214525 | 17 | 302 | 1.6 | 12.9 | 0.00 | 0.48 | 0.46 | 35 | 1008.3 |
| 20260507213017 | 17 | 310 | 1.6 | 6.4 | 0.00 | 0.48 | 0.46 | 34 | 1008.3 |
| 20260507211512 | 17 | 240 | 1.6 | 11.3 | 0.00 | 0.48 | 0.46 | 34 | 1008.2 |
| 20260507210012 | 18 | 217 | 3.2 | 11.3 | 0.00 | 0.48 | 0.46 | 34 | 1008.1 |
| 20260507204509 | 17 | 297 | 1.6 | 9.7 | 0.00 | 0.48 | 0.46 | 38 | 1008.0 |
| 20260507203008 | 17 | 111 | 0.0 | 9.7 | 0.00 | 0.48 | 0.46 | 39 | 1007.9 |
| 20260507201512 | 17 | 354 | 1.6 | 6.4 | 0.00 | 0.48 | 0.46 | 37 | 1008.0 |
| 20260507200006 | 17 | 273 | 1.6 | 12.9 | 0.00 | 0.48 | 0.46 | 36 | 1008.2 |
| 20260507194502 | 17 | 359 | 3.2 | 12.9 | 0.00 | 0.48 | 0.46 | 36 | 1008.4 |
| 20260507193021 | 17 | 354 | 1.6 | 9.7 | 0.00 | 0.48 | 0.46 | 40 | 1008.7 |
| 20260507191516 | 17 | 160 | 1.6 | 11.3 | 0.00 | 0.48 | 0.46 | 38 | 1008.7 |
| 20260507190017 | 17 | 160 | 1.6 | 6.4 | 0.00 | 0.48 | 0.46 | 42 | 1009.1 |
| 20260507184511 | 17 | 1 | 1.6 | 6.4 | 0.00 | 0.48 | 0.46 | 40 | 1009.4 |
| 20260507183025 | 17 | 328 | 3.2 | 11.3 | 0.00 | 0.48 | 0.46 | 44 | 1009.4 |
| 20260507181507 | 17 | 163 | 0.0 | 11.3 | 0.00 | 0.48 | 0.46 | 41 | 1009.3 |
| 20260507180005 | 17 | 346 | 3.2 | 6.4 | 0.00 | 0.48 | 0.46 | 46 | 1009.6 |
| 20260507174541 | 16 | 295 | 1.6 | 11.3 | 0.00 | 0.48 | 0.46 | 46 | 1009.9 |
| 20260507173024 | 16 | 11 | 1.6 | 6.4 | 0.00 | 0.48 | 0.46 | 42 | 1010.1 |
| 20260507171522 | 16 | 193 | 1.6 | 8.0 | 0.00 | 0.48 | 0.46 | 44 | 1010.3 |
| 20260507170018 | 16 | 10 | 3.2 | 8.0 | 0.00 | 0.48 | 0.46 | 46 | 1010.4 |
| 20260507164513 | 16 | 300 | 1.6 | 8.0 | 0.00 | 0.48 | 0.46 | 47 | 1010.6 |
| 20260507163018 | 16 | 288 | 1.6 | 8.0 | 0.00 | 0.48 | 0.46 | 45 | 1010.9 |
| 20260507161509 | 15 | 356 | 0.0 | 6.4 | 0.00 | 0.51 | 0.46 | 57 | 1011.0 |
| 20260507160011 | 15 | 39 | 0.0 | 6.4 | 0.00 | 0.56 | 0.46 | 58 | 1011.1 |
| 20260507154524 | 14 | 57 | 1.6 | 6.4 | 0.00 | 0.61 | 0.46 | 58 | 1011.5 |
| 20260507153027 | 13 | 84 | 0.0 | 11.3 | 0.00 | 0.64 | 0.46 | 59 | 1011.7 |
| 20260507151521 | 13 | 25 | 1.6 | 11.3 | 0.00 | 0.66 | 0.46 | 64 | 1012.0 |
| 20260507150019 | 13 | 26 | 0.0 | 6.4 | 0.00 | 0.66 | 0.46 | 66 | 1012.1 |
| 20260507144528 | 13 | 77 | 1.6 | 11.3 | 0.00 | 0.66 | 0.46 | 68 | 1012.2 |
| 20260507143018 | 12 | 199 | 1.6 | 4.8 | 0.00 | 0.66 | 0.46 | 72 | 1012.3 |
| 20260507141514 | 12 | 359 | 1.6 | 6.4 | 0.00 | 0.66 | 0.46 | 77 | 1012.4 |
| 20260507140037 | 11 | 156 | 0.0 | 6.4 | 0.00 | 0.66 | 0.46 | 80 | 1012.5 |
| 20260507134524 | 11 | 314 | 0.0 | 4.8 | 0.00 | 0.66 | 0.46 | 82 | 1012.5 |